Date,TemperatureHighF,TemperatureAvgF,TemperatureLowF,DewpointHighF,DewpointAvgF,DewpointLowF,HumidityHigh,HumidityAvg,HumidityLow,PressureMaxIn,PressureMinIn,WindSpeedMaxMPH,WindSpeedAvgMPH,GustSpeedMaxMPH,PrecipitationSumIn
2013-8-1,66.8,57.7,50.7,53.4,46.0,39.0,82,66,51,30.36,30.25,5,0,11,0.08
2013-8-2,78.9,63.7,51.6,55.8,48.6,41.9,87,62,28,30.27,30.18,4,0,10,0.02
2013-8-3,76.4,59.6,49.4,53.8,46.9,42.1,80,65,31,30.34,30.24,5,0,15,0.02
2013-8-4,78.5,58.6,44.3,51.1,45.5,39.5,84,64,32,30.36,30.26,9,1,17,0.01
2013-8-5,77.4,60.7,49.7,54.7,48.1,43.1,78,64,37,30.31,30.19,7,1,16,0.01
2013-8-6,75.6,58.1,49.5,51.7,47.0,42.1,83,69,31,30.27,30.18,13,1,14,0.02
2013-8-7,65.4,55.4,50.6,49.8,47.0,44.3,86,74,51,30.25,30.18,4,0,12,0.14
2013-8-8,73.2,57.0,48.2,50.4,44.7,36.0,85,67,26,30.29,30.14,5,1,13,0.18
2013-8-9,74.5,58.9,45.2,48.0,42.8,35.2,83,59,26,30.33,30.22,9,1,18,0.00
2013-8-10,74.3,55.4,42.8,45.7,41.2,35.6,78,61,27,30.37,30.27,9,1,22,0.03
2013-8-11,75.1,57.2,41.5,49.2,40.5,35.2,82,58,24,30.37,30.22,5,1,16,0.00
2013-8-12,71.9,56.3,44.8,50.0,41.8,37.4,77,60,31,30.33,30.25,6,0,16,0.00
2013-8-13,74.5,56.1,41.0,51.8,39.9,31.6,82,59,22,30.35,30.24,3,0,11,0.03
2013-8-14,78.3,57.2,40.0,42.7,36.3,31.6,78,50,21,30.35,30.24,4,0,15,0.00
2013-8-15,78.7,57.7,38.7,42.9,35.2,30.4,74,47,20,30.35,30.25,5,0,16,0.00
2013-8-16,82.7,59.7,39.7,42.9,35.3,28.8,74,45,15,30.38,30.26,3,0,9,0.00
2013-8-17,82.5,61.2,40.6,44.0,36.9,32.5,75,45,17,30.36,30.21,5,0,11,0.00
2013-8-18,78.9,58.8,46.6,52.2,43.5,37.3,76,59,27,30.33,30.25,7,0,18,0.01
2013-8-19,83.4,62.1,44.0,49.9,44.0,38.5,83,56,22,30.35,30.20,5,0,14,0.00
2013-8-20,83.3,62.4,46.8,49.1,43.6,35.2,77,54,19,30.31,30.19,10,1,21,0.03
2013-8-21,82.7,60.3,45.1,50.9,44.7,38.4,80,59,26,30.33,30.22,8,0,16,0.00
2013-8-22,81.7,62.1,49.5,51.2,46.5,40.9,81,60,24,30.35,30.20,7,0,17,0.00
2013-8-23,74.9,60.9,49.5,50.1,45.4,42.0,79,59,31,30.28,30.14,6,0,14,0.00
2013-8-24,71.6,58.8,49.0,50.7,45.9,42.0,84,64,36,30.29,30.21,6,0,9,0.02
2013-8-25,70.8,60.6,50.3,54.2,49.3,44.4,83,67,47,30.34,30.25,3,0,10,0.02
2013-8-26,78.0,63.3,54.9,55.2,51.6,46.3,84,68,33,30.36,30.26,3,0,11,0.12
2013-8-27,81.1,61.8,46.6,52.6,47.0,41.8,87,62,27,30.33,30.18,5,0,16,0.00
2013-8-28,84.1,64.4,49.0,52.4,46.0,40.6,81,55,22,30.31,30.20,4,0,13,0.00
2013-8-29,85.1,65.1,47.1,50.9,44.3,35.4,78,51,17,30.38,30.25,8,1,15,0.00
2013-8-30,82.6,67.1,56.3,51.9,46.7,40.0,71,50,24,30.37,30.25,5,0,14,0.00
2013-8-31,80.4,62.9,50.8,52.6,46.9,42.7,75,58,27,30.30,30.21,6,1,14,0.01